Location: Godiavel Galaoual
(15.2485°N, 12.6604°W)
Time: 11:17:22
(UTC+00:00)

Hubble Space Telescope - Pass Details

Date: 17 May 2021
Orbit: 535 x 539 km, 28.5° (Epoch: 19 June)

Event Time Altitude Azimuth Distance (km) Brightness Sun altitude
Exits shadow 04:02:24 15° 105° (ESE) 1,477 3.4 -30.8°
Drops below altitude 10° 04:03:24 10° 95° (E) 1,773 4.0 -30.6°
Sets 04:05:57 0° 81° (E) 2,663 5.3 -30.1°
